Location: Cz?stochówka
(50.8142°N, 19.0915°E)
Time: 19:11:24
(UTC+00:00)

Cosmos 1844 Rocket - Pass Details

Date: 13 January 2026
Orbit: 822 x 845 km, 71.0° (Epoch: 13 February)

Event Time Altitude Azimuth Distance (km) Brightness Sun altitude
Exits shadow 03:23:12 33° 11° (N) 1,387 3.8 -30.4°
Drops below altitude 10° 03:26:22 10° 25° (NNE) 2,473 5.4 -29.9°
Sets 03:28:52 0° 29° (NNE) 3,414 6.2 -29.5°
